Location: Burzi?i
(45.0869°N, 16.0577°E)
Time: 03:42:41
(UTC+00:00)

NOSS 3-4 (C) - Pass Details

Date: 29 October 2020
Orbit: 884 x 1328 km, 63.4° (Epoch: 28 November)

Event Time Altitude Azimuth Distance (km) Brightness Sun altitude
Rises 17:54:27 0° 322° (NW) 3,794 7.2 -22.9°
Reaches altitude 10° 17:57:00 10° 326° (NNW) 2,899 6.4 -23.3°
Maximum altitude 18:03:53 62° 47° (NE) 1,288 3.8 -24.6°
Enters shadow 18:05:42 49° 99° (E) 1,486 4.0 -24.9°
